Weather History for Deming, NM

Change the Weather History Date:

Wednesday, November 21, 2012

  Actual Average Record
Temperature  
Mean Temperature 60 °F 48 °F  
Max Temperature 71 °F 64 °F 84 °F (2003)
Min Temperature 48 °F 32 °F 13 °F (1956)
Degree Days  
Heating Degree Days 6    
Growing Degree Days 10 (Base 50)    
Moisture  
Dew Point 32 °F    
Average Humidity 37    
Maximum Humidity 63    
Minimum Humidity 27    
Precipitation  
Precipitation 0.00 in 0.03 in 0.11 in (2011)
Month to date precipitation 0.45  
Year to date precipitation 10.40  
Sea Level Pressure  
Sea Level Pressure 30.02 in    
Wind  
Wind Speed 5 mph (East)    
Max Wind Speed 8 mph    
Max Gust Speed -    
Visibility 10 miles    
Events      
T = Trace of Precipitation, MM = Missing Value Source: NWS Daily Summary

Daily Weather History Graph

Daily Weather History Graph

Search for Another Location

Airport:

Trip Planner

Search our weather history database for the weather conditions in past years. The results will help you decide how hot, cold, wet, or windy it might be!

Date:

Astronomy

Nov. 21, 2012 Rise Set
Actual Time 6:45 AM MST 5:07 PM MST
Civil Twilight 6:19 AM MST 5:33 PM MST
Nautical Twilight 5:49 AM MST 6:03 PM MST
Astronomical Twilight 5:20 AM MST 6:33 PM MST
Moon 1:06 PM MST (11/21) 12:29 AM MST (11/21)
Length of Visible Light 11h 14m
Length of Day
10h 21m
Waxing Gibbous, 62% of the Moon is Illuminated
Nov 21
Waxing Gibbous
Nov 28
Full
Dec 6
Last Quarter
Dec 13
New
Dec 19
First Quarter

Hourly Weather History & Observations

Time (MST) Temp. Dew Point Humidity Pressure Visibility Wind Dir Wind Speed Gust Speed Precip Events Conditions
12:53 AM 54.0 °F 24.1 °F 31% 30.04 in 10.0 mi ESE 6.9 mph - N/A   Clear
1:53 AM 52.0 °F 24.1 °F 34% 30.04 in 10.0 mi SE 5.8 mph - N/A   Clear
2:53 AM 53.1 °F 23.0 °F 31% 30.03 in 10.0 mi ESE 6.9 mph - N/A   Clear
3:53 AM 52.0 °F 24.1 °F 34% 30.03 in 10.0 mi East 6.9 mph - N/A   Clear
4:53 AM 53.1 °F 24.1 °F 32% 30.03 in 10.0 mi ESE 4.6 mph - N/A   Overcast
5:53 AM 51.1 °F 24.1 °F 35% 30.07 in 10.0 mi ESE 3.5 mph - N/A   Mostly Cloudy
6:53 AM 53.1 °F 24.1 °F 32% 30.07 in 10.0 mi NE 4.6 mph - N/A   Clear
7:53 AM 54.0 °F 26.1 °F 34% 30.10 in 10.0 mi East 6.9 mph - N/A   Scattered Clouds
8:53 AM 59.0 °F 25.0 °F 27% 30.11 in 10.0 mi ENE 8.1 mph - N/A   Partly Cloudy
9:53 AM 62.1 °F 30.0 °F 30% 30.12 in 10.0 mi East 5.8 mph - N/A   Overcast
10:53 AM 63.0 °F 33.1 °F 33% 30.08 in 10.0 mi Calm Calm - N/A   Partly Cloudy
11:53 AM 64.9 °F 35.1 °F 33% 30.04 in 10.0 mi Calm Calm - N/A   Clear
12:53 PM 68.0 °F 36.0 °F 31% 29.99 in 10.0 mi Calm Calm - N/A   Clear
1:53 PM 71.1 °F 37.9 °F 30% 29.96 in 10.0 mi South 4.6 mph - N/A   Clear
2:53 PM 71.1 °F 37.0 °F 29% 29.95 in 10.0 mi SW 4.6 mph - N/A   Clear
3:53 PM 70.0 °F 37.0 °F 30% 29.94 in 10.0 mi Calm Calm - N/A   Clear
4:53 PM 66.9 °F 37.0 °F 33% 29.95 in 10.0 mi East 5.8 mph - N/A   Overcast
5:53 PM 64.0 °F 37.9 °F 38% 29.96 in 10.0 mi ENE 4.6 mph - N/A   Scattered Clouds
6:53 PM 61.0 °F 37.9 °F 42% 29.98 in 10.0 mi NE 3.5 mph - N/A   Clear
7:53 PM 57.0 °F 36.0 °F 45% 30.00 in 10.0 mi NNE 5.8 mph - N/A   Clear
8:53 PM 55.0 °F 37.0 °F 51% 29.99 in 10.0 mi NNW 4.6 mph - N/A   Partly Cloudy
9:53 PM 53.1 °F 37.9 °F 57% 29.99 in 10.0 mi West 3.5 mph - N/A   Clear
10:53 PM 48.0 °F 34.0 °F 58% 30.00 in 10.0 mi NNE 4.6 mph - N/A   Clear
11:53 PM 50.0 °F 37.9 °F 63% 29.99 in 10.0 mi NNE 4.6 mph - N/A   Clear